EEST,Max TemperatureF,Mean TemperatureF,Min TemperatureF,Max Dew PointF,MeanDew PointF,Min DewpointF,Max Humidity, Mean Humidity, Min Humidity, Max Sea Level PressureIn, Mean Sea Level PressureIn, Min Sea Level PressureIn, Max VisibilityMiles, Mean VisibilityMiles, Min VisibilityMiles, Max Wind SpeedMPH, Mean Wind SpeedMPH, Max Gust SpeedMPH,PrecipitationIn, CloudCover, Events, WindDirDegrees
2013-7-1,87,76,64,63,51,41,69,43,19,30.01,29.94,29.89,6,6,6,17,5,25,0.00,1,,325
2013-7-2,89,78,66,64,53,43,73,44,20,30.04,29.99,29.95,6,6,6,14,4,,0.00,1,,223
2013-7-3,89,78,68,59,53,46,64,41,25,29.98,29.93,29.89,6,6,6,14,4,,0.00,1,,199
2013-7-4,89,78,68,59,48,45,61,32,21,29.92,29.89,29.83,6,6,6,12,4,,0.00,1,,2
2013-7-5,87,79,71,57,51,45,46,35,25,29.92,29.89,29.86,6,6,6,15,7,28,0.00,2,,352
2013-7-6,87,81,75,61,55,52,57,41,29,29.89,29.86,29.83,6,6,6,18,9,34,0.00,2,,342
2013-7-7,89,83,77,59,55,52,54,39,27,29.95,29.90,29.86,6,6,6,20,12,34,0.00,1,,341
2013-7-8,93,85,77,57,52,48,50,33,23,29.98,29.97,29.92,6,6,6,17,11,32,0.00,1,,336
2013-7-9,93,86,80,57,54,50,42,33,24,29.98,29.89,29.83,6,6,6,17,11,31,0.00,1,,333
2013-7-10,91,84,77,61,54,46,57,37,22,29.86,29.79,29.74,6,6,6,17,10,31,0.00,1,,346
2013-7-11,93,82,71,59,54,48,53,37,21,29.83,29.78,29.74,6,6,6,14,5,,0.00,2,,345
2013-7-12,93,84,75,63,58,54,57,41,29,29.92,29.85,29.83,6,6,6,13,5,,0.00,2,,209
2013-7-13,93,85,77,59,55,50,51,36,24,29.92,29.89,29.86,6,6,6,13,8,,0.00,2,,345
2013-7-14,93,83,73,54,51,48,50,31,21,29.92,29.89,29.83,6,6,6,14,8,,0.00,1,,348
2013-7-15,91,82,73,57,52,48,47,34,24,29.92,29.88,29.83,6,6,6,12,4,23,0.00,1,,359
2013-7-16,91,83,75,54,52,50,44,33,24,29.92,29.89,29.86,6,6,6,14,5,,0.00,2,,354
2013-7-17,82,76,71,61,56,52,69,49,37,30.01,29.97,29.95,6,6,6,20,11,39,0.00,4,,343
2013-7-18,86,80,75,57,52,48,53,37,27,30.01,29.99,29.98,6,6,6,17,11,33,0.00,2,,351
2013-7-19,87,79,71,55,49,45,50,33,22,30.01,29.95,29.92,6,6,6,16,9,30,0.00,1,,344
2013-7-20,89,78,68,52,49,45,52,32,21,29.92,29.85,29.80,6,6,6,16,7,31,0.00,1,,345
2013-7-21,95,85,75,52,50,48,41,29,20,29.89,29.84,29.80,,,,17,8,,0.00,,,360
2013-7-22,86,80,75,63,56,52,65,45,31,29.92,29.88,29.83,6,6,6,20,12,36,0.00,3,,335
2013-7-23,89,80,71,57,48,39,53,33,19,29.89,29.86,29.83,6,6,6,15,9,31,0.00,2,,351
2013-7-24,95,82,69,45,43,39,40,23,14,29.92,29.89,29.86,,,,16,6,,0.00,,,357
2013-7-25,96,84,71,57,47,37,44,27,13,29.92,29.89,29.86,,,,12,4,,0.00,,,239
2013-7-26,98,84,71,57,47,41,46,25,14,29.89,29.85,29.80,6,6,6,13,4,,0.00,1,,351
2013-7-27,96,86,75,61,51,45,48,29,18,29.92,29.86,29.83,6,6,6,12,3,,0.00,1,,325
2013-7-28,95,84,73,54,52,48,47,31,23,30.01,29.96,29.92,6,6,6,14,3,,0.00,1,,6
2013-7-29,96,86,75,54,50,46,47,28,18,30.01,29.97,29.92,,,,15,8,25,0.00,,,354
2013-7-30,98,88,77,63,53,46,48,29,18,29.92,29.81,29.74,6,6,6,13,4,,0.00,1,,203
2013-7-31,100,88,75,59,57,52,47,33,25,29.80,29.73,29.68,6,6,6,12,4,,0.00,1,,355